Terminal Aerodrome Forecast
Issued by NWS Houston/Galveston, TX

Home | Current Version | Previous Version | Text Only | Print | Product List | Glossary On
Versions: 1 2 3 4 5 6 7 8 9 10 11 12 13 14 15 16 17 18 19 20 21 22 23 24 25 26 27 28 29 30 31 32 33 34 35 36 37 38 39 40 41 42 43 44 45 46 47 48 49 50
000
FTUS44 KHGX 171503 AAA
TAFGLS
TAF AMD
KGLS 171503Z 1715/1812 13015KT 6SM TSRA SCT025CB BKN035
      TEMPO 1715/1718 VRB20KT 4SM TSRA BKN025CB
     FM172100 12011KT P6SM VCSH SCT025 BKN040
     FM180300 15014KT 5SM SHRA BR BKN025 BKN035
     FM180900 18014KT 3SM TSRA SCT025CB BKN035=

USA.gov is the U.S. government's official web portal to all federal, state and local government web resources and services.